Radiation Dose at Monitoring Post of Fukushima Daini Nuclear Power Station
Date,Time,MP-1(microSv/h),MP-2(microSv/h),MP-3(microSv/h),MP-4(microSv/h),MP-5(microSv/h),MP-6(microSv/h),MP-7(microSv/h),Wind Direction,Wind Velocity(m/s),Rain
2024/06/05,00:00,0.143,0.127,0.203,0.192,0.204,0.112,0.072,north-northwest,5.8,No
2024/06/05,00:10,0.143,0.127,0.204,0.190,0.202,0.112,0.072,north-northwest,5.3,No
2024/06/05,00:20,0.144,0.127,0.205,0.192,0.204,0.112,0.073,north-northwest,3.8,No
2024/06/05,00:30,0.144,0.127,0.205,0.191,0.203,0.112,0.072,north,5.1,Yes
2024/06/05,00:40,0.143,0.127,0.203,0.193,0.204,0.113,0.073,north-northwest,5.3,Yes
2024/06/05,00:50,0.143,0.127,0.204,0.191,0.203,0.112,0.072,north,6.2,Yes
2024/06/05,01:00,0.144,0.127,0.204,0.193,0.205,0.112,0.072,north-northwest,6.1,Yes
2024/06/05,01:10,0.142,0.127,0.205,0.191,0.202,0.111,0.073,north-northwest,6.3,Yes
2024/06/05,01:20,0.144,0.128,0.203,0.192,0.203,0.113,0.072,north-northwest,6.0,Yes
2024/06/05,01:30,0.144,0.128,0.204,0.192,0.202,0.112,0.072,north-northwest,5.7,Yes
2024/06/05,01:40,0.143,0.127,0.204,0.192,0.202,0.113,0.073,north-northwest,5.8,Yes
2024/06/05,01:50,0.144,0.127,0.203,0.192,0.205,0.113,0.073,north-northwest,7.0,Yes
2024/06/05,02:00,0.143,0.127,0.205,0.191,0.204,0.112,0.072,north-northwest,5.6,Yes
2024/06/05,02:10,0.144,0.128,0.204,0.193,0.204,0.112,0.072,north-northwest,5.6,Yes
2024/06/05,02:20,0.143,0.127,0.204,0.191,0.203,0.112,0.072,north-northwest,5.5,Yes
2024/06/05,02:30,0.144,0.127,0.203,0.192,0.204,0.112,0.073,north-northwest,7.2,No
2024/06/05,02:40,0.143,0.127,0.204,0.192,0.203,0.113,0.073,north-northwest,7.8,No
2024/06/05,02:50,0.143,0.127,0.203,0.192,0.205,0.112,0.073,north-northwest,7.5,No
2024/06/05,03:00,0.143,0.128,0.203,0.191,0.203,0.112,0.072,north-northwest,7.7,No
2024/06/05,03:10,0.143,0.127,0.204,0.192,0.204,0.111,0.072,north-northwest,7.1,No
2024/06/05,03:20,0.143,0.128,0.203,0.192,0.202,0.112,0.072,north-northwest,6.6,No
2024/06/05,03:30,0.143,0.127,0.204,0.192,0.205,0.113,0.073,north-northwest,6.3,No
2024/06/05,03:40,0.144,0.127,0.203,0.191,0.203,0.112,0.073,north-northwest,7.0,Yes
2024/06/05,03:50,0.143,0.127,0.204,0.191,0.204,0.112,0.072,north-northwest,6.4,No
2024/06/05,04:00,0.144,0.127,0.204,0.192,0.204,0.112,0.073,north-northwest,5.6,No
2024/06/05,04:10,0.143,0.127,0.204,0.191,0.205,0.112,0.072,northwest,6.2,No
2024/06/05,04:20,0.144,0.126,0.204,0.192,0.202,0.112,0.073,north-northwest,6.0,Yes
2024/06/05,04:30,0.143,0.127,0.203,0.192,0.204,0.113,0.072,north-northwest,6.1,No
2024/06/05,04:40,0.143,0.127,0.203,0.191,0.203,0.112,0.073,north-northwest,5.0,No
2024/06/05,04:50,0.143,0.128,0.203,0.191,0.203,0.113,0.072,north-northwest,5.7,No
2024/06/05,05:00,0.144,0.127,0.204,0.192,0.203,0.112,0.072,northwest,5.2,No
2024/06/05,05:10,0.142,0.128,0.203,0.190,0.202,0.112,0.072,north-northwest,5.7,No
2024/06/05,05:20,0.143,0.127,0.204,0.192,0.204,0.113,0.072,north-northwest,4.2,Yes
2024/06/05,05:30,0.143,0.128,0.202,0.190,0.203,0.112,0.072,north-northwest,4.6,No
2024/06/05,05:40,0.144,0.127,0.203,0.192,0.204,0.112,0.073,north-northwest,4.8,No
2024/06/05,05:50,0.142,0.127,0.204,0.190,0.201,0.112,0.072,north-northwest,4.5,No
2024/06/05,06:00,0.144,0.127,0.204,0.191,0.204,0.112,0.072,north-northwest,4.2,No
2024/06/05,06:10,0.143,0.127,0.203,0.191,0.204,0.112,0.072,north-northwest,3.9,No
2024/06/05,06:20,0.143,0.127,0.204,0.192,0.203,0.111,0.073,north-northwest,3.7,No
2024/06/05,06:30,0.142,0.127,0.204,0.191,0.203,0.113,0.073,north-northwest,4.8,No
2024/06/05,06:40,0.144,0.128,0.203,0.191,0.204,0.112,0.072,north,3.7,No
2024/06/05,06:50,0.143,0.127,0.203,0.190,0.202,0.112,0.073,north-northwest,4.2,No
2024/06/05,07:00,0.142,0.127,0.204,0.192,0.203,0.112,0.073,north-northwest,4.1,No
2024/06/05,07:10,0.143,0.126,0.203,0.190,0.204,0.112,0.073,north,5.1,No
2024/06/05,07:20,0.143,0.128,0.204,0.192,0.202,0.113,0.072,north-northwest,4.7,No
2024/06/05,07:30,0.143,0.127,0.203,0.189,0.204,0.112,0.072,north-northwest,4.7,No
2024/06/05,07:40,0.142,0.126,0.204,0.192,0.203,0.112,0.073,north,4.3,No
2024/06/05,07:50,0.143,0.128,0.203,0.191,0.203,0.113,0.072,north,4.6,No
2024/06/05,08:00,0.142,0.127,0.203,0.192,0.203,0.113,0.072,north,4.9,No
2024/06/05,08:10,0.144,0.127,0.204,0.192,0.201,0.113,0.072,north,5.3,No
2024/06/05,08:20,0.143,0.126,0.203,0.189,0.205,0.112,0.073,north,4.9,No
2024/06/05,08:30,0.143,0.127,0.204,0.193,0.202,0.112,0.072,north,5.3,No
2024/06/05,08:40,0.143,0.128,0.202,0.191,0.204,0.112,0.072,north,4.3,No
2024/06/05,08:50,0.143,0.125,0.202,0.189,0.203,0.111,0.073,north-northeast,5.6,No
2024/06/05,09:00,0.144,0.128,0.204,0.192,0.201,0.112,0.072,north-northeast,5.3,No
2024/06/05,09:10,0.142,0.127,0.202,0.191,0.200,0.112,0.072,north,5.2,No
2024/06/05,09:20,0.142,0.127,0.203,0.190,0.203,0.112,0.073,north-northeast,7.2,No
2024/06/05,09:30,0.144,0.127,0.202,0.190,0.202,0.111,0.073,north-northeast,5.4,No
2024/06/05,09:40,0.144,0.127,0.201,0.192,0.200,0.112,0.072,northeast,5.2,No
2024/06/05,09:50,0.141,0.127,0.204,0.192,0.202,0.114,0.072,northeast,5.3,No
2024/06/05,10:00,0.143,0.126,0.203,0.192,0.203,0.113,0.072,northeast,6.0,No
2024/06/05,10:10,0.144,0.127,0.203,0.190,0.201,0.112,0.074,northeast,5.7,No
2024/06/05,10:20,0.141,0.127,0.203,0.191,0.203,0.112,0.072,northeast,4.3,No
2024/06/05,10:30,0.142,0.126,0.201,0.193,0.205,0.112,0.072,north-northeast,4.6,No
2024/06/05,10:40,0.144,0.127,0.204,0.193,0.203,0.113,0.072,northeast,4.4,No
2024/06/05,10:50,0.142,0.127,0.205,0.190,0.202,0.112,0.073,northeast,4.5,No
2024/06/05,11:00,0.142,0.126,0.203,0.190,0.203,0.112,0.073,north-northeast,4.8,No
2024/06/05,11:10,0.143,0.127,0.203,0.193,0.206,0.112,0.072,north-northeast,3.6,No
2024/06/05,11:20,0.144,0.127,0.203,0.193,0.201,0.112,0.071,northeast,5.2,No
2024/06/05,11:30,0.144,0.127,0.205,0.192,0.202,0.113,0.073,northeast,4.7,No
2024/06/05,11:40,0.143,0.126,0.206,0.190,0.204,0.113,0.073,northeast,3.2,No
2024/06/05,11:50,0.144,0.127,0.204,0.193,0.203,0.112,0.073,north-northeast,3.9,No
2024/06/05,12:00,0.143,0.127,0.202,0.195,0.203,0.113,0.071,north-northeast,4.1,No
2024/06/05,12:10,0.142,0.128,0.203,0.193,0.202,0.113,0.073,north-northeast,3.5,No
2024/06/05,12:20,0.143,0.127,0.205,0.192,0.204,0.113,0.073,north-northeast,3.2,No
2024/06/05,12:30,0.145,0.129,0.205,0.193,0.204,0.112,0.071,northeast,4.3,No
2024/06/05,12:40,0.143,0.127,0.204,0.194,0.202,0.113,0.072,east-northeast,2.7,No
2024/06/05,12:50,0.142,0.127,0.202,0.194,0.200,0.112,0.073,northeast,3.1,No
2024/06/05,13:00,0.143,0.128,0.204,0.192,0.204,0.113,0.073,east-northeast,3.3,No
2024/06/05,13:10,0.145,0.127,0.206,0.191,0.204,0.113,0.073,northeast,2.3,No
2024/06/05,13:20,0.144,0.127,0.206,0.192,0.203,0.111,0.072,northeast,2.3,No
2024/06/05,13:30,0.144,0.126,0.205,0.194,0.202,0.112,0.073,east-northeast,2.7,No
2024/06/05,13:40,0.141,0.128,0.204,0.193,0.202,0.112,0.072,northeast,3.2,No
2024/06/05,13:50,0.145,0.128,0.203,0.192,0.204,0.113,0.072,east-northeast,2.4,No
2024/06/05,14:00,0.144,0.127,0.204,0.192,0.204,0.112,0.073,northeast,3.0,No
2024/06/05,14:10,0.144,0.126,0.207,0.192,0.203,0.112,0.073,east,2.7,No
2024/06/05,14:20,0.143,0.128,0.205,0.194,0.202,0.112,0.072,east,2.5,No
2024/06/05,14:30,0.144,0.128,0.204,0.194,0.201,0.113,0.072,east,2.1,No
2024/06/05,14:40,0.144,0.128,0.204,0.193,0.201,0.113,0.072,east-northeast,2.1,No
2024/06/05,14:50,0.144,0.126,0.202,0.192,0.204,0.112,0.072,east-northeast,1.9,No
2024/06/05,15:00,0.144,0.128,0.206,0.192,0.205,0.112,0.073,east,2.1,No
2024/06/05,15:10,0.143,0.128,0.206,0.193,0.204,0.113,0.072,east-southeast,1.7,No
2024/06/05,15:20,0.142,0.128,0.205,0.195,0.203,0.113,0.072,east-southeast,2.0,No
2024/06/05,15:30,0.144,0.126,0.203,0.193,0.201,0.113,0.073,east-southeast,2.0,No
2024/06/05,15:40,0.144,0.127,0.204,0.192,0.203,0.112,0.072,east,1.6,No
2024/06/05,15:50,0.144,0.129,0.206,0.193,0.203,0.112,0.073,east-southeast,1.4,No
2024/06/05,16:00,0.143,0.128,0.206,0.195,0.206,0.112,0.072,east-southeast,1.0,No
2024/06/05,16:10,0.145,0.129,0.205,0.193,0.204,0.113,0.073,east-southeast,0.6,No
2024/06/05,16:20,0.144,0.127,0.206,0.194,0.203,0.113,0.073,east-southeast,1.4,No
2024/06/05,16:30,0.142,0.128,0.205,0.193,0.202,0.113,0.072,-,CALM,No
2024/06/05,16:40,0.144,0.129,0.207,0.194,0.201,0.112,0.073,south-southeast,0.8,No
2024/06/05,16:50,0.144,0.128,0.205,0.194,0.205,0.112,0.073,south-southeast,1.2,No
2024/06/05,17:00,0.143,0.128,0.206,0.192,0.205,0.112,0.073,south-southeast,1.4,No
2024/06/05,17:10,0.144,0.127,0.205,0.195,0.202,0.113,0.072,south-southeast,1.7,No
2024/06/05,17:20,0.145,0.129,0.206,0.194,0.203,0.114,0.073,south,2.1,No
2024/06/05,17:30,0.144,0.128,0.205,0.195,0.206,0.112,0.073,south-southeast,2.1,No
2024/06/05,17:40,0.144,0.127,0.205,0.195,0.203,0.113,0.073,south-southeast,1.8,No
2024/06/05,17:50,0.144,0.129,0.206,0.193,0.204,0.113,0.073,south-southeast,2.2,No
2024/06/05,18:00,0.143,0.128,0.206,0.194,0.206,0.113,0.072,south-southeast,1.1,No
2024/06/05,18:10,0.144,0.127,0.206,0.194,0.202,0.113,0.073,south-southeast,1.7,No
2024/06/05,18:20,0.144,0.127,0.205,0.195,0.206,0.113,0.073,south-southeast,1.6,No
2024/06/05,18:30,0.145,0.128,0.207,0.192,0.203,0.114,0.073,south-southeast,1.3,No
2024/06/05,18:40,0.144,0.128,0.205,0.194,0.206,0.113,0.073,south-southeast,1.5,No
2024/06/05,18:50,0.145,0.128,0.206,0.192,0.205,0.113,0.073,south-southeast,1.3,No
2024/06/05,19:00,0.144,0.127,0.205,0.195,0.205,0.112,0.073,south-southeast,1.7,No
2024/06/05,19:10,0.143,0.129,0.207,0.194,0.204,0.113,0.073,south,2.6,No
2024/06/05,19:20,0.144,0.127,0.206,0.195,0.203,0.112,0.072,south,2.6,No
2024/06/05,19:30,0.143,0.128,0.206,0.194,0.205,0.113,0.073,south,2.3,No
2024/06/05,19:40,0.144,0.128,0.205,0.195,0.203,0.113,0.073,south,1.5,No
2024/06/05,19:50,0.144,0.128,0.207,0.194,0.204,0.113,0.073,south,1.2,No
2024/06/05,20:00,0.145,0.128,0.206,0.195,0.204,0.113,0.073,south,1.4,No
2024/06/05,20:10,0.143,0.128,0.207,0.194,0.205,0.113,0.073,south-southeast,1.5,No
2024/06/05,20:20,0.145,0.127,0.206,0.195,0.203,0.114,0.072,south-southwest,0.8,No
2024/06/05,20:30,0.144,0.128,0.205,0.193,0.206,0.114,0.073,south-southwest,0.8,No
2024/06/05,20:40,0.145,0.128,0.207,0.196,0.205,0.113,0.073,-,CALM,No
2024/06/05,20:50,0.144,0.128,0.205,0.195,0.206,0.114,0.074,-,CALM,No
2024/06/05,21:00,0.145,0.129,0.206,0.195,0.204,0.113,0.073,-,CALM,No
2024/06/05,21:10,0.146,0.128,0.207,0.194,0.205,0.113,0.073,-,CALM,No
2024/06/05,21:20,0.145,0.128,0.207,0.195,0.205,0.113,0.073,-,CALM,No
2024/06/05,21:30,0.144,0.129,0.207,0.194,0.205,0.113,0.073,-,CALM,No
2024/06/05,21:40,0.145,0.129,0.205,0.194,0.205,0.113,0.074,-,CALM,No
2024/06/05,21:50,0.145,0.130,0.208,0.195,0.205,0.115,0.073,-,CALM,No
2024/06/05,22:00,0.145,0.129,0.207,0.195,0.205,0.113,0.074,south-southwest,0.7,No
2024/06/05,22:10,0.145,0.129,0.206,0.195,0.205,0.114,0.073,west-southwest,0.8,Yes
2024/06/05,22:20,0.145,0.129,0.208,0.195,0.206,0.113,0.074,-,CALM,No
2024/06/05,22:30,0.145,0.129,0.208,0.195,0.204,0.114,0.074,north-northwest,0.6,No
2024/06/05,22:40,0.145,0.130,0.207,0.194,0.206,0.114,0.073,-,CALM,No
2024/06/05,22:50,0.146,0.128,0.208,0.194,0.204,0.113,0.074,west,0.8,Yes
2024/06/05,23:00,0.145,0.129,0.207,0.195,0.206,0.115,0.073,west-northwest,0.7,No
2024/06/05,23:10,0.145,0.129,0.208,0.195,0.204,0.114,0.075,-,CALM,No
2024/06/05,23:20,0.145,0.129,0.206,0.196,0.206,0.114,0.074,-,CALM,No
2024/06/05,23:30,0.144,0.129,0.206,0.194,0.205,0.113,0.074,-,CALM,No
2024/06/05,23:40,0.145,0.129,0.207,0.194,0.205,0.114,0.074,north-northwest,1.2,No
2024/06/05,23:50,0.145,0.129,0.206,0.196,0.205,0.114,0.074,-,CALM,No
